Simultaneous Nadir Overpasses (SNOs) Predictions

Prediction of SNOs between GOES-17 and AQUA Satellite Orbit:

Table of predicted SNOs for the next 14.0 days since TLE Epoch: 10/24/2020
Index Date Time (GOES-17) GOES-17 Lat,Lon AQUA Lat,Lon Distance(km) Time Diff (sec)
1 10/24/2020 11:01:03 0.02,-137.21 0.96,-141.59 498.12 80
2 10/25/2020 22:30:17 -0.02,-137.20 0.76,-133.47 423.77 80
3 10/26/2020 10:48:52 0.02,-137.21 0.33,-138.63 161.65 80
4 10/28/2020 10:39:22 0.02,-137.22 -0.30,-135.68 174.71 80
5 10/28/2020 22:58:05 -0.01,-137.21 -0.79,-140.87 416.63 80
6 10/30/2020 22:45:54 -0.02,-137.21 -0.14,-137.92 80.78 80
7 11/01/2020 22:36:22 -0.02,-137.20 0.45,-134.96 254.47 80
8 11/02/2020 10:54:58 0.01,-137.21 0.66,-140.12 331.52 80
9 11/04/2020 10:45:27 0.01,-137.19 0.00,-137.17 2.76 80
10 11/06/2020 10:33:15 0.01,-137.16 -0.60,-134.21 335.82 80
11 11/06/2020 22:51:59 -0.01,-137.15 -0.47,-139.40 256.25 80
